Weather History for Atlantis, LA

Change the Weather History Date:

Sunday, January 12, 2014

  Actual Average Record
Temperature  
Mean Temperature 68 °F -  
Max Temperature 69 °F - - ()
Min Temperature 66 °F - - ()
Cooling Degree Days 2    
Growing Degree Days 18 (Base 50)    
Moisture  
Dew Point 47 °F    
Average Humidity 50    
Maximum Humidity 73    
Minimum Humidity 30    
Precipitation  
Precipitation 0.00 in - - ()
Sea Level Pressure  
Sea Level Pressure 30.20 in    
Wind  
Wind Speed 18 mph (East)    
Max Wind Speed 20 mph    
Max Gust Speed 22 mph    
Visibility 6 miles    
Events      
T = Trace of Precipitation, MM = Missing Value Source: NWS Daily Summary

Daily Weather History Graph

Daily Weather History Graph

Search for Another Location

Airport:

Trip Planner

Search our weather history database for the weather conditions in past years. The results will help you decide how hot, cold, wet, or windy it might be!

Date:

Astronomy

Jan. 12, 2014 Rise Set
Actual Time 6:51 AM CST 5:25 PM CST
Civil Twilight 6:26 AM CST 5:51 PM CST
Nautical Twilight 5:57 AM CST 6:19 PM CST
Astronomical Twilight 5:29 AM CST 6:47 PM CST
Moon 2:51 PM CST (1/12) 3:52 AM CST (1/12)
Length of Visible Light 11h 25m
Length of Day
10h 34m
Waxing Gibbous, 90% of the Moon is Illuminated
Jan 12
Waxing Gibbous
Jan 15
Full
Jan 23
Last Quarter
Jan 30
New
Feb 6
First Quarter

Hourly Weather History & Observations

Time (CST) Temp. Dew Point Humidity Pressure Visibility Wind Dir Wind Speed Gust Speed Precip Events Conditions
12:15 AM 68.0 °F 48.2 °F 49% 30.18 in 7.0 mi North 17.3 mph - N/A   Partly Cloudy
12:35 AM 68.0 °F 46.4 °F 46% 30.17 in 6.0 mi NNE 18.4 mph - N/A   Haze
12:55 AM 68.0 °F 41.0 °F 37% 30.18 in 6.0 mi North 17.3 mph - N/A   Haze
1:15 AM 68.0 °F 44.6 °F 43% 30.17 in 7.0 mi NNE 18.4 mph - N/A   Scattered Clouds
1:35 AM 68.0 °F 44.6 °F 43% 30.18 in 7.0 mi NNE 16.1 mph - N/A   Scattered Clouds
1:55 AM 68.0 °F 41.0 °F 37% 30.18 in 7.0 mi North 16.1 mph - N/A   Partly Cloudy
2:15 AM 68.0 °F 37.4 °F 33% 30.18 in 7.0 mi NNE 18.4 mph - N/A   Partly Cloudy
2:35 AM 68.0 °F 37.4 °F 33% 30.18 in 7.0 mi North 17.3 mph - N/A   Clear
2:55 AM 68.0 °F 35.6 °F 30% 30.18 in 7.0 mi NNE 17.3 mph - N/A   Partly Cloudy
3:15 AM 66.2 °F 37.4 °F 35% 30.18 in 7.0 mi NNE 19.6 mph - N/A   Scattered Clouds
3:35 AM 66.2 °F 35.6 °F 32% 30.19 in 7.0 mi NE 16.1 mph - N/A   Partly Cloudy
3:55 AM 66.2 °F 35.6 °F 32% 30.19 in 7.0 mi NE 17.3 mph - N/A   Clear
4:15 AM 66.2 °F 37.4 °F 35% 30.19 in 7.0 mi NE 18.4 mph - N/A   Clear
4:35 AM 66.2 °F 37.4 °F 35% 30.19 in 7.0 mi NE 18.4 mph - N/A   Clear
4:55 AM 66.2 °F 35.6 °F 32% 30.19 in 8.0 mi ENE 19.6 mph - N/A   Clear
5:15 AM 66.2 °F 35.6 °F 32% 30.19 in 8.0 mi NE 19.6 mph - N/A   Clear
5:35 AM 66.2 °F 37.4 °F 35% 30.19 in 7.0 mi ENE 19.6 mph - N/A   Clear
5:55 AM 66.2 °F 35.6 °F 32% 30.20 in 7.0 mi East 19.6 mph - N/A   Clear
6:15 AM 66.2 °F 37.4 °F 35% 30.20 in 8.0 mi East 19.6 mph - N/A   Clear
6:35 AM 66.2 °F 37.4 °F 35% 30.21 in 8.0 mi ENE 19.6 mph - N/A   Clear
6:55 AM 66.2 °F 37.4 °F 35% 30.22 in 7.0 mi ENE 18.4 mph - N/A   Clear
7:15 AM 66.2 °F 41.0 °F 40% 30.22 in 7.0 mi ENE 19.6 mph - N/A   Clear
7:35 AM 66.2 °F 39.2 °F 37% 30.23 in 4.0 mi East 18.4 mph - N/A   Haze
7:55 AM 66.2 °F 39.2 °F 37% 30.24 in 5.0 mi ENE 17.3 mph - N/A   Haze
8:15 AM 66.2 °F 39.2 °F 37% 30.24 in 5.0 mi East 18.4 mph - N/A   Haze
8:35 AM 66.2 °F 39.2 °F 37% 30.25 in 6.0 mi East 17.3 mph - N/A   Haze
8:55 AM 66.2 °F 39.2 °F 37% 30.26 in 5.0 mi East 17.3 mph - N/A   Haze
9:15 AM 66.2 °F 41.0 °F 40% 30.27 in 6.0 mi East 17.3 mph - N/A   Haze
9:35 AM 66.2 °F 42.8 °F 43% 30.27 in 7.0 mi East 16.1 mph 21.9 mph N/A   Clear
9:55 AM 66.2 °F 41.0 °F 40% 30.27 in 6.0 mi East 16.1 mph - N/A   Haze
10:15 AM 68.0 °F 42.8 °F 40% 30.27 in 6.0 mi East 18.4 mph - N/A   Haze
10:35 AM 68.0 °F 44.6 °F 43% 30.27 in 6.0 mi East 19.6 mph - N/A   Haze
10:55 AM 68.0 °F 46.4 °F 46% 30.26 in 6.0 mi East 17.3 mph - N/A   Haze
11:15 AM 68.0 °F 44.6 °F 43% 30.27 in 6.0 mi ESE 16.1 mph - N/A   Haze
11:35 AM 66.2 °F 44.6 °F 46% 30.25 in 6.0 mi ESE 15.0 mph - N/A   Haze
11:55 AM 66.2 °F 46.4 °F 49% 30.24 in 6.0 mi ESE 16.1 mph - N/A   Haze
12:15 PM 66.2 °F 46.4 °F 49% 30.22 in 5.0 mi ESE 17.3 mph - N/A   Haze
12:35 PM 66.2 °F 46.4 °F 49% 30.22 in - ESE 17.3 mph - N/A   Clear
12:55 PM 66.2 °F 48.2 °F 52% 30.20 in 6.0 mi ESE 17.3 mph - N/A   Haze
1:15 PM 66.2 °F 48.2 °F 52% 30.19 in 5.0 mi ESE 17.3 mph - N/A   Haze
1:35 PM 66.2 °F 48.2 °F 52% 30.18 in 5.0 mi ESE 17.3 mph - N/A   Haze
1:55 PM 66.2 °F 48.2 °F 52% 30.18 in 5.0 mi SE 17.3 mph - N/A   Haze
2:15 PM 68.0 °F 48.2 °F 49% 30.17 in 5.0 mi SE 17.3 mph - N/A   Haze
2:35 PM 68.0 °F 50.0 °F 52% 30.17 in 5.0 mi SE 16.1 mph - N/A   Haze
2:55 PM 66.2 °F 50.0 °F 56% 30.17 in 5.0 mi SE 17.3 mph - N/A   Haze
3:15 PM 66.2 °F 50.0 °F 56% 30.17 in 5.0 mi SE 19.6 mph - N/A   Haze
3:35 PM 66.2 °F 50.0 °F 56% 30.18 in 5.0 mi SE 17.3 mph - N/A   Haze
3:55 PM 68.0 °F 51.8 °F 56% 30.17 in 5.0 mi SE 17.3 mph - N/A   Haze
4:15 PM 68.0 °F 51.8 °F 56% 30.17 in 6.0 mi SE 18.4 mph - N/A   Haze
4:35 PM 68.0 °F 51.8 °F 56% 30.18 in 5.0 mi SE 17.3 mph - N/A   Haze
4:55 PM 68.0 °F 53.6 °F 60% 30.17 in 5.0 mi SE 17.3 mph - N/A   Haze
5:15 PM 68.0 °F 53.6 °F 60% 30.17 in 5.0 mi SE 18.4 mph - N/A   Haze
5:35 PM 68.0 °F 53.6 °F 60% 30.17 in 5.0 mi ESE 18.4 mph - N/A   Haze
5:55 PM 68.0 °F 53.6 °F 60% 30.17 in 5.0 mi SE 19.6 mph - N/A   Haze
6:15 PM 68.0 °F 53.6 °F 60% 30.17 in 5.0 mi SE 19.6 mph - N/A   Haze
6:35 PM 68.0 °F 53.6 °F 60% 30.17 in 5.0 mi SE 18.4 mph - N/A   Haze
6:55 PM 68.0 °F 55.4 °F 64% 30.18 in 5.0 mi SE 18.4 mph - N/A   Haze
7:15 PM 68.0 °F 55.4 °F 64% 30.18 in - SE 15.0 mph 21.9 mph N/A   Haze
7:35 PM 68.0 °F 55.4 °F 64% 30.19 in 6.0 mi SE 18.4 mph - N/A   Haze
7:55 PM 68.0 °F 57.2 °F 68% 30.19 in 5.0 mi SE 16.1 mph - N/A   Haze
8:15 PM 68.0 °F 57.2 °F 68% 30.19 in 5.0 mi SE 19.6 mph - N/A   Haze
8:35 PM 68.0 °F 57.2 °F 68% 30.19 in 5.0 mi SE 18.4 mph - N/A   Haze
8:55 PM 68.0 °F 57.2 °F 68% 30.19 in 4.0 mi SE 15.0 mph 21.9 mph N/A   Haze
9:15 PM 68.0 °F 57.2 °F 68% 30.20 in 4.0 mi SE 19.6 mph - N/A   Haze
9:35 PM 68.0 °F 59.0 °F 73% 30.19 in 5.0 mi SE 19.6 mph - N/A   Haze
9:55 PM 68.0 °F 59.0 °F 73% 30.19 in 5.0 mi SE 17.3 mph - N/A   Haze
10:15 PM 68.0 °F 59.0 °F 73% 30.19 in 5.0 mi SE 13.8 mph 21.9 mph N/A   Haze
10:35 PM 69.8 °F 59.0 °F 68% 30.18 in 5.0 mi SSE 16.1 mph - N/A   Haze
10:55 PM 69.8 °F 59.0 °F 68% 30.17 in 5.0 mi SE 16.1 mph - N/A   Haze
11:15 PM 69.8 °F 60.8 °F 73% 30.16 in 4.0 mi SSE 15.0 mph 20.7 mph N/A   Haze
11:35 PM 69.8 °F 60.8 °F 73% 30.16 in 5.0 mi SE 16.1 mph 21.9 mph N/A   Haze
11:55 PM 69.8 °F 60.8 °F 73% 30.16 in 4.0 mi SE 13.8 mph 19.6 mph N/A   Haze